Theta_e
312 312 314 316 316 315 315 315 315 315 315 315 315 316 317 317 317 317 318 318 319 322 323 322 322 321 322 322 323 322 321 320 319 319 318 317 316 316 316 316 315 315 315 315 315 316 316 316 316 315 314 314 313 313 313 312 311 312 313 313 314 314 312 311 310 309 308 308 309 309 309 310 309 309 308 307 306 306 306 306 307 307 306 306 305 304 305 305 304 304 304 305 305 306 307 306 305 304 305 306 306 306 306
311 314 317 319 319 316 314 314 314 314 314 314 314 315 316 316 317 317 317 318 319 321 323 323 322 321 322 322 322 322 321 320 319 318 317 317 316 315 315 315 314 314 313 314 315 316 315 315 314 314 314 313 312 312 311 311 310 311 311 312 313 313 312 311 310 309 309 309 309 309 310 310 311 310 308 307 306 306 305 306 306 306 306 306 305 304 304 304 304 304 304 304 304 305 306 306 304 303 303 303 304 304 304
310 318 318 318 319 320 314 313 313 314 314 314 315 314 315 316 316 317 317 317 318 320 322 322 322 322 322 321 321 321 321 320 319 318 317 316 316 315 315 314 314 314 314 314 314 315 314 313 313 312 313 312 311 310 310 309 310 310 310 310 310 311 310 310 310 309 309 309 309 309 309 309 309 308 307 305 304 304 304 304 305 305 305 305 305 304 303 303 304 304 304 303 303 304 304 305 304 303 302 303 303 303 303
309 318 317 317 318 318 314 312 313 314 314 314 315 315 316 316 316 316 316 315 316 319 322 323 322 322 322 322 321 320 320 320 319 318 317 316 316 316 316 316 316 315 315 314 314 314 313 313 312 312 312 312 312 310 309 309 309 310 309 308 308 307 307 307 307 308 307 307 307 309 308 308 307 306 306 305 304 304 304 304 304 304 305 305 304 303 304 304 304 303 302 302 302 303 303 303 304 304 303 303 303 304 303
306 308 313 316 317 316 313 312 312 312 313 314 315 315 315 314 314 314 314 313 314 316 320 323 323 322 323 323 322 320 319 319 319 318 317 317 316 317 317 317 317 316 315 314 313 312 313 312 312 312 312 312 311 311 310 309 309 309 308 308 307 306 307 307 307 307 306 306 306 307 307 306 306 305 305 305 304 304 304 304 305 306 306 304 303 303 303 303 303 303 302 302 302 303 303 303 303 304 304 304 304 304 304
306 306 310 314 315 313 312 311 311 312 312 313 313 313 312 312 312 312 312 312 312 313 317 321 323 323 322 322 322 321 319 319 319 321 319 318 317 317 317 317 317 315 313 313 312 311 311 312 312 311 309 309 309 309 310 309 309 308 307 307 307 306 307 307 306 306 307 307 307 306 306 306 305 305 305 305 305 305 305 304 304 305 304 303 302 302 302 302 302 303 303 303 303 303 303 303 303 303 303 304 304 304 304
306 310 310 310 311 310 310 310 310 311 312 312 312 311 311 311 311 311 311 311 312 312 313 317 321 323 322 322 321 319 322 322 321 323 323 322 320 318 317 315 314 314 313 312 311 310 310 309 309 309 308 308 308 308 308 308 307 306 306 306 306 306 306 306 306 306 306 307 307 306 306 306 306 306 306 305 305 305 305 304 303 303 303 302 302 301 301 301 301 302 303 303 303 304 304 303 302 302 302 302 303 303 304
306 308 310 310 310 310 311 313 314 314 313 314 313 311 311 310 310 310 311 311 311 312 312 314 318 322 322 322 321 321 322 322 322 324 325 324 322 318 315 313 312 312 311 310 309 308 309 308 309 309 308 307 307 307 308 308 307 307 307 306 305 306 306 306 306 306 306 306 306 306 306 306 306 306 306 305 305 305 303 302 302 302 302 302 302 301 300 300 301 301 301 301 301 302 303 303 303 302 302 302 302 302 304
305 306 307 309 310 310 311 313 315 316 314 314 312 310 310 310 310 310 311 311 311 312 312 313 314 318 321 321 321 321 322 322 323 324 323 323 322 321 315 312 311 310 309 308 308 307 307 307 308 307 307 307 308 309 309 309 310 309 308 306 305 305 306 306 306 306 306 306 306 306 306 306 306 305 304 303 303 302 301 301 301 302 303 303 302 302 302 301 301 300 300 300 301 301 301 301 301 302 301 301 301 301 302
305 305 306 307 308 309 310 310 311 312 311 310 310 310 310 310 310 311 311 311 312 312 312 313 313 314 316 318 320 321 321 322 323 324 323 323 322 322 315 312 310 309 308 308 308 307 307 307 307 306 306 306 307 308 308 308 308 308 307 306 305 305 305 306 307 307 307 307 307 307 307 306 305 304 302 302 302 301 302 302 302 302 302 303 303 302 302 301 301 300 300 301 301 300 301 300 300 300 301 301 300 300 300
306 306 306 306 306 307 308 308 308 308 308 308 308 308 308 308 309 310 310 311 311 312 312 313 313 314 314 316 320 322 321 321 322 323 322 322 319 314 311 309 308 307 307 307 308 307 306 307 307 307 307 307 306 306 306 307 307 307 307 307 307 306 306 307 308 308 308 307 307 307 306 306 304 303 302 302 302 302 303 303 303 303 303 303 303 303 302 302 302 301 301 301 300 300 300 301 300 300 301 301 301 300 300
305 306 306 306 306 307 307 308 308 308 308 308 308 308 307 307 307 308 309 310 311 312 312 313 313 314 314 317 321 322 321 322 322 322 322 320 315 310 309 308 308 308 308 307 307 306 306 306 307 307 308 307 307 306 307 308 308 308 307 308 309 308 308 308 308 308 308 307 307 306 305 304 303 303 303 303 303 303 302 302 302 302 303 303 303 302 302 302 302 302 300 300 300 300 301 301 302 302 302 302 302 301 300
305 305 305 306 306 307 307 308 308 308 308 308 308 307 307 307 307 307 307 308 309 310 311 312 313 313 314 315 317 318 319 320 320 319 318 318 315 310 314 315 313 310 308 307 307 306 306 305 305 305 306 306 307 307 307 307 307 306 307 308 309 310 309 308 308 308 307 306 306 305 304 304 303 303 303 303 303 303 302 302 302 302 303 303 303 302 302 302 302 302 300 299 300 301 300 301 302 303 303 303 302 301 301
304 304 304 304 305 305 306 307 308 308 308 308 307 307 307 307 307 307 307 308 308 308 310 311 312 311 311 310 310 310 312 313 313 312 313 317 320 318 318 316 313 308 308 308 307 306 305 304 304 304 305 306 307 306 307 307 306 306 307 308 309 309 309 308 307 307 306 305 305 305 305 305 305 305 304 304 304 303 303 303 302 302 304 304 303 302 302 301 301 301 300 300 300 300 301 301 302 303 303 302 302 302 301
304 304 304 305 305 305 305 306 307 308 307 307 306 307 307 307 307 307 308 309 310 309 310 310 310 309 309 309 309 310 310 311 312 315 316 317 318 319 313 311 309 307 307 307 307 306 305 305 305 306 307 308 307 306 307 306 306 306 307 308 308 308 309 308 307 307 306 306 306 306 306 306 306 307 306 305 305 305 304 303 303 303 304 304 302 301 301 301 300 300 300 300 300 300 300 301 301 302 302 302 302 302 301
304 304 304 305 305 305 305 305 306 307 307 306 306 307 307 307 307 307 308 309 310 310 310 310 309 309 308 308 308 310 311 313 316 319 317 316 315 312 310 309 308 307 306 306 306 307 307 307 307 307 307 307 307 306 306 306 305 306 306 307 307 308 308 308 308 308 307 308 308 308 309 309 309 309 309 308 308 307 305 304 303 303 304 303 301 301 301 300 300 300 300 300 300 300 300 300 301 300 301 302 303 302 301
304 304 304 305 305 305 306 306 306 307 307 307 308 308 308 308 308 308 308 309 310 310 309 309 308 308 307 307 307 308 312 314 316 315 313 312 310 308 307 306 305 305 305 305 305 306 307 307 307 307 306 306 306 306 306 306 305 305 306 306 307 308 308 308 308 309 309 309 309 310 310 311 311 311 311 310 309 307 306 304 304 304 305 303 301 300 300 300 300 300 300 300 300 300 300 300 300 300 301 301 302 302 301
304 304 305 305 305 305 306 306 307 306 307 308 308 308 308 308 308 308 308 308 309 309 308 308 307 306 306 305 306 306 309 310 311 311 309 308 306 306 305 304 304 305 305 305 306 306 307 306 306 306 305 305 305 306 306 306 305 305 306 306 307 307 308 308 308 309 309 310 310 311 311 311 311 311 310 309 308 307 305 304 303 305 304 302 300 300 299 299 300 300 301 301 300 300 300 300 300 300 301 301 302 302 300
304 304 304 305 305 305 306 306 306 307 307 308 308 308 308 308 308 307 307 307 307 308 307 307 306 305 304 304 304 304 305 305 306 307 306 305 305 305 304 304 304 305 305 306 307 307 306 306 305 305 305 305 305 305 306 306 306 306 306 307 307 307 308 308 309 309 310 310 310 311 311 311 310 310 308 307 305 304 302 301 301 302 301 300 300 300 300 300 301 301 301 301 301 300 300 300 300 300 300 301 302 301 300
303 303 304 304 304 305 305 305 306 306 307 307 307 307 307 307 307 307 307 307 307 306 306 305 304 304 303 303 303 303 303 303 304 304 304 304 305 305 305 305 305 305 306 306 306 307 306 305 304 304 304 304 304 305 305 306 306 306 307 307 308 308 308 309 309 310 310 310 310 310 310 309 309 308 306 305 302 301 300 300 300 300 300 300 300 301 301 301 302 302 302 301 301 300 300 300 300 300 300 301 301 301 301
302 303 303 303 303 304 304 305 305 305 306 306 306 306 306 306 306 306 306 306 305 305 304 304 304 304 303 302 302 302 302 303 303 303 303 304 304 304 304 305 306 305 305 306 306 307 306 305 304 304 304 304 305 305 306 306 306 306 307 308 308 308 309 309 309 309 309 309 309 309 308 307 306 305 304 303 302 301 301 301 300 300 300 300 300 301 301 302 302 303 302 302 301 301 300 300 300 300 301 300 301 301 302
301 302 302 302 302 302 303 303 304 304 304 305 305 305 305 305 305 305 305 305 305 304 304 304 304 303 302 302 302 302 303 303 303 303 303 303 303 303 303 304 305 305 305 304 303 304 305 305 305 305 305 305 305 306 306 306 306 306 307 307 307 307 308 308 308 308 308 307 307 306 305 304 303 303 303 302 302 302 302 302 302 301 301 302 302 302 302 303 303 303 303 302 302 301 300 301 301 300 301 301 301 301 302
301 301 301 301 301 301 302 302 303 303 303 304 304 304 304 304 303 303 304 304 305 304 303 303 303 303 303 302 302 302 303 303 303 303 303 303 303 302 302 303 303 304 305 304 302 304 305 305 305 305 305 305 306 306 306 306 306 306 306 307 307 307 307 307 307 307 306 305 304 303 303 303 303 304 303 303 303 303 303 303 303 303 303 303 304 304 304 304 303 303 303 303 302 301 301 301 301 301 301 301 301 301 301
300 301 301 301 301 301 301 301 302 302 302 303 303 303 303 303 302 302 303 303 303 303 303 302 301 303 303 302 302 301 302 302 302 302 302 302 301 301 301 302 303 304 305 305 305 306 304 305 306 306 306 306 305 306 306 306 306 306 307 307 307 307 307 307 306 305 304 303 303 303 303 304 304 304 304 303 303 304 304 304 304 305 305 305 305 305 305 304 304 303 303 302 301 301 301 300 300 301 301 301 300 301 301
300 300 301 301 301 301 301 301 301 302 302 302 303 303 303 303 303 303 302 302 302 302 302 302 301 302 303 302 302 302 301 301 301 301 301 301 301 301 302 303 305 306 305 306 307 306 306 306 306 306 305 305 305 305 305 306 306 306 307 307 307 307 307 306 305 304 303 303 303 304 304 304 304 304 304 303 303 303 304 304 305 305 305 305 305 305 304 304 303 302 302 302 302 301 301 301 301 301 301 301 301 301 301
301 301 301 301 302 302 302 301 301 301 302 302 302 302 302 302 302 302 302 302 302 302 302 301 301 302 302 303 303 303 301 301 301 302 303 303 304 304 305 306 307 307 306 306 305 304 304 305 305 305 303 302 303 304 305 305 306 306 307 307 307 307 306 305 305 304 304 304 304 304 304 304 304 304 304 303 303 303 304 304 304 304 304 304 304 304 303 303 302 302 302 302 302 301 301 301 301 301 301 302 302 302 302
301 301 301 301 302 302 302 302 302 302 302 302 302 302 302 302 303 302 302 302 302 302 302 302 302 301 302 302 303 303 301 301 303 304 305 305 306 305 306 306 306 306 306 305 303 301 301 302 304 303 303 303 303 305 305 305 306 306 307 307 306 306 306 305 305 305 304 303 303 303 304 304 304 304 304 303 303 303 304 304 304 304 303 303 302 301 301 301 302 301 302 302 302 301 301 301 301 302 302 302 301 301 302
301 302 302 302 302 302 303 303 303 303 302 302 302 302 302 303 303 303 303 303 303 302 302 303 302 302 303 304 304 304 303 303 303 303 304 305 305 304 305 305 305 305 304 304 304 303 303 304 304 303 304 303 303 304 305 305 306 306 306 306 305 305 305 305 304 303 302 301 301 302 303 303 303 303 303 303 303 303 303 303 303 302 302 301 300 300 300 301 301 301 302 302 301 302 302 302 302 302 302 302 301 302 302
301 301 302 302 302 302 303 303 303 303 304 304 303 303 303 303 303 304 304 303 304 303 303 303 303 304 304 305 305 305 305 304 304 303 303 303 303 303 304 304 303 303 303 303 302 302 302 301 302 303 302 302 303 304 305 305 305 306 305 305 304 303 303 302 302 301 300 300 300 300 301 302 302 301 302 303 303 303 302 301 301 300 300 300 300 300 300 300 301 301 302 302 301 302 302 302 302 303 302 302 303 303 303
301 301 301 302 302 302 303 303 303 303 303 304 304 304 304 304 304 305 304 304 304 304 304 304 304 304 304 305 305 305 305 305 304 303 303 303 302 302 302 302 302 302 301 301 301 301 301 301 301 302 301 302 303 304 304 304 304 303 302 302 302 301 302 301 301 300 299 299 299 299 300 301 301 301 299 300 300 300 299 299 299 298 298 299 299 299 300 300 301 301 302 302 302 302 302 302 302 302 302 303 303 303 303
300 300 301 301 302 302 302 303 303 303 303 303 303 304 304 305 305 305 305 305 305 305 304 305 305 304 304 305 305 305 305 305 304 302 303 303 302 302 302 301 301 301 301 301 301 301 301 301 301 301 301 301 301 302 301 301 302 302 302 301 301 301 300 300 299 298 298 297 298 299 300 300 300 300 299 298 297 297 297 298 298 298 298 298 299 299 300 300 301 301 301 301 301 301 301 301 302 302 303 303 303 303 303
300 300 301 301 302 302 302 302 302 302 303 302 303 304 305 305 305 305 305 305 305 305 304 304 305 305 305 305 305 305 305 305 304 303 304 304 303 302 303 302 302 301 301 301 301 301 301 301 301 301 301 301 301 300 300 300 300 300 300 299 299 299 299 299 298 297 298 298 299 299 299 298 298 297 296 296 296 296 296 297 297 297 298 298 299 299 300 300 300 300 300 299 299 299 300 300 301 302 302 303 303 302 303
299 300 300 301 301 302 302 302 302 302 303 303 304 304 305 305 305 304 305 305 305 304 304 304 304 304 304 304 305 305 305 304 304 302 303 303 303 302 302 302 302 302 301 301 301 301 301 301 301 301 301 301 301 301 300 300 300 299 299 299 299 299 299 299 298 298 299 299 299 298 297 296 295 295 295 295 295 296 296 296 297 297 298 298 298 299 299 298 298 299 299 299 299 299 300 301 302 302 302 302 302 302 302
299 300 300 301 301 301 301 302 302 302 303 303 304 304 304 304 304 304 304 304 304 304 304 304 303 303 304 304 304 304 304 304 304 303 303 303 302 302 301 301 301 301 301 301 301 301 301 301 301 301 301 301 300 300 300 300 299 298 299 299 299 299 299 298 299 299 298 298 297 296 295 295 295 295 295 295 296 296 296 297 297 297 298 298 298 298 298 298 298 298 298 299 300 300 301 302 302 302 302 301 301 301 301
299 300 300 301 301 301 301 301 302 302 303 303 303 303 303 304 304 304 304 304 304 304 304 303 303 303 303 303 303 303 303 303 303 303 302 302 301 301 300 300 300 300 300 300 300 300 301 301 300 301 300 300 300 300 300 300 299 297 298 299 300 299 299 298 298 299 297 297 296 295 296 296 296 296 296 297 297 297 297 297 298 298 298 298 298 298 298 298 298 298 298 299 300 300 300 300 301 301 301 301 300 300 300
299 300 300 300 301 301 301 301 302 302 303 303 303 303 303 303 303 303 303 303 303 303 303 303 303 302 302 302 302 302 302 302 302 301 301 301 301 300 300 300 300 300 300 300 301 301 301 301 300 300 300 300 300 300 300 300 299 298 299 299 299 299 299 298 298 298 297 297 296 296 296 297 297 297 298 298 298 298 298 298 298 299 298 298 298 298 298 298 298 298 298 298 299 299 299 299 299 299 299 298 298 298 297
299 300 300 300 300 301 301 301 302 302 303 303 303 302 302 302 302 303 303 303 303 303 303 302 302 302 302 301 301 301 301 301 301 300 300 300 300 300 300 300 300 300 300 300 300 300 300 300 300 300 300 300 300 300 300 300 300 300 300 299 299 299 299 299 299 298 298 298 297 298 298 298 298 298 298 298 298 298 298 298 299 298 298 298 298 298 298 298 298 297 297 296 296 297 297 297 296 296 295 295 295 294 294
299 300 300 300 300 300 300 301 301 301 302 302 301 301 301 301 301 302 302 302 302 302 302 302 302 301 301 301 301 301 301 301 300 300 299 299 299 299 299 300 300 300 300 300 300 300 299 300 300 300 300 300 300 300 300 300 300 300 300 300 299 300 299 299 299 299 298 298 298 298 298 299 298 299 298 298 298 298 298 298 298 297 297 296 296 296 296 296 295 295 294 294 294 294 295 294 294 293 293 292 292 292 292
300 300 300 300 300 300 300 300 300 301 301 301 301 301 301 301 301 301 301 301 301 301 301 301 301 301 300 300 300 300 300 300 300 299 299 298 299 298 298 299 299 299 299 299 299 299 299 300 300 300 300 300 300 299 300 300 300 300 300 300 300 299 299 299 299 299 299 299 299 298 298 298 298 298 298 298 297 297 297 297 296 296 295 295 294 294 294 293 293 292 292 292 292 292 292 292 292 292 291 290 290 290 290
300 300 300 300 300 300 300 300 300 301 300 300 300 300 300 300 300 301 301 301 301 300 300 300 300 300 300 300 300 300 300 300 300 299 299 298 298 298 298 298 298 298 298 298 299 299 300 300 300 299 300 299 299 299 299 299 299 300 299 299 299 299 298 298 299 299 298 298 298 298 297 298 298 298 297 297 296 295 295 295 295 294 294 293 293 292 292 291 291 291 290 290 290 290 290 290 290 290 290 289 289 289 289
300 300 300 300 300 300 300 300 300 300 300 300 300 300 300 300 300 300 300 300 300 300 300 300 300 299 299 299 300 300 300 299 299 299 299 298 298 298 298 298 297 297 298 298 299 299 299 299 298 298 298 298 298 298 298 298 299 299 299 299 298 298 298 298 298 298 298 297 297 296 296 296 296 296 296 295 295 294 294 294 294 293 293 292 292 291 290 290 290 289 289 289 289 289 289 289 289 289 289 288 288 288 288
300 300 299 299 299 299 299 299 300 300 300 300 300 300 299 299 299 299 299 299 299 299 299 299 299 299 299 299 299 300 299 299 299 299 298 298 298 297 298 297 298 298 298 299 299 299 298 297 297 297 297 297 297 297 297 297 298 298 298 298 297 297 298 297 297 296 296 296 295 295 295 295 295 295 294 294 294 293 293 293 293 293 292 291 290 290 289 289 289 289 289 289 288 288 288 288 288 288 288 287 287 287 287
300 299 299 299 299 299 299 299 299 299 299 299 299 299 299 299 299 298 298 298 298 298 298 299 299 299 299 299 299 299 298 298 298 298 297 297 297 297 297 298 298 298 298 298 298 297 297 296 296 296 296 296 296 296 296 297 297 298 298 297 297 297 297 296 295 295 295 294 294 294 294 294 294 293 293 293 293 292 292 292 292 292 292 291 290 290 289 288 288 288 288 288 288 288 287 287 287 287 287 287 287 287 287
299 298 298 298 298 298 299 299 299 299 299 299 299 298 298 298 298 298 298 298 298 298 298 298 299 299 299 299 299 299 298 298 298 297 297 297 297 298 298 298 298 298 298 297 297 296 296 295 295 295 295 295 295 296 296 296 297 297 297 296 296 296 295 294 294 293 293 293 293 292 292 293 293 293 292 292 292 291 291 292 292 291 291 291 290 289 289 288 288 288 288 288 287 287 287 287 287 287 287 287 287 287 287
298 298 298 298 298 298 298 298 299 299 298 298 298 298 298 298 297 297 297 298 298 298 298 298 298 298 298 298 298 298 298 297 297 296 296 296 297 298 298 298 297 297 296 296 296 295 295 295 295 294 294 295 295 295 295 295 295 295 295 294 294 293 293 293 292 292 291 291 291 291 291 291 291 291 291 290 290 290 290 290 290 290 290 290 290 290 289 288 288 287 287 287 287 287 287 287 287 287 287 287 287 287 287
298 298 298 298 298 298 298 298 298 298 298 298 298 298 297 297 297 297 297 297 297 297 297 297 297 298 297 297 297 297 297 296 296 296 295 296 297 298 297 297 296 296 295 295 294 294 294 294 294 294 294 294 294 294 294 293 293 292 292 292 291 291 291 291 291 290 290 290 289 289 289 288 288 288 288 288 288 288 289 289 289 289 289 289 289 288 288 288 287 287 287 287 287 287 286 286 286 286 286 286 286 287 287
298 298 298 298 298 298 298 298 298 297 297 297 297 297 297 297 297 297 297 297 297 296 296 296 296 296 296 296 296 297 296 295 295 294 294 295 295 296 296 295 294 294 294 294 294 294 293 293 293 293 293 293 293 292 292 291 291 290 290 289 290 290 290 289 289 289 288 288 288 288 287 287 287 287 287 287 287 287 287 287 287 288 287 287 287 287 286 286 286 286 286 287 287 286 286 286 286 286 286 286 286 286 286
298 298 298 298 298 298 298 298 297 297 297 297 297 296 296 296 296 296 296 296 296 296 296 295 295 295 295 295 295 295 295 294 293 293 293 294 295 295 294 293 293 293 293 293 293 293 292 292 292 292 292 291 291 290 290 289 289 289 288 288 288 288 287 287 287 287 287 287 287 287 287 286 286 286 286 286 286 286 286 286 286 286 287 286 286 286 286 285 285 285 285 285 285 285 285 285 285 285 285 285 284 284 284
298 298 298 298 298 298 298 298 297 297 297 296 296 296 295 296 295 296 295 295 295 295 295 294 294 294 293 293 293 294 293 293 292 292 292 293 293 293 292 292 292 293 293 293 293 293 292 291 291 290 290 290 289 288 288 288 288 287 287 287 286 286 286 286 286 286 286 286 287 286 286 286 286 285 285 285 285 286 285 285 285 285 285 285 285 286 286 286 285 283 283 284 284 284 284 284 284 284 284 283 283 283 283
298 299 299 299 298 298 298 297 296 296 296 295 295 295 295 295 295 295 294 294 294 294 293 293 293 292 292 292 292 293 292 292 291 290 291 292 293 292 292 292 292 292 292 292 292 291 291 290 289 289 288 288 287 287 287 287 287 287 286 286 285 284 284 284 284 285 285 285 286 286 286 286 286 285 285 285 285 285 285 285 285 285 284 285 286 286 288 289 288 285 285 284 283 282 283 283 283 282 282 282 282 282 282
299 298 298 298 298 298 297 296 295 295 295 295 294 294 294 294 294 294 293 293 293 292 292 292 292 291 291 291 291 292 291 291 290 290 291 292 292 291 292 292 292 292 291 291 290 290 290 289 288 287 287 287 286 286 286 286 286 285 285 285 284 283 283 283 284 284 284 284 284 285 284 285 285 284 284 284 284 284 284 284 284 284 284 285 286 288 289 290 289 289 287 285 283 281 281 282 281 281 281 281 281 281 281
298 298 298 298 297 297 296 295 295 295 295 294 294 294 294 294 293 293 293 292 292 291 291 290 290 290 290 290 291 290 290 290 289 289 291 292 291 291 291 291 291 290 290 289 289 289 288 288 287 286 286 286 285 285 285 284 284 284 284 284 283 283 283 283 283 283 284 284 284 284 284 284 284 284 284 284 283 283 283 283 283 284 284 284 286 289 289 289 288 288 287 286 284 281 280 279 279 279 279 280 279 279 279
297 297 297 297 296 295 295 294 294 294 294 294 294 294 293 293 292 292 292 291 290 290 290 289 289 290 290 290 290 290 290 289 288 290 291 291 291 291 291 290 290 289 289 288 288 288 287 287 286 286 285 285 284 284 284 284 284 284 284 284 283 283 283 282 282 282 283 283 283 284 283 283 284 283 284 283 283 283 283 282 282 282 282 283 286 289 289 288 288 287 286 285 284 281 279 278 278 278 278 278 278 278 278
297 296 296 296 295 295 294 294 294 294 294 294 293 293 293 292 292 292 291 290 289 289 289 289 289 289 289 290 290 290 289 288 288 291 290 290 290 290 290 289 289 288 288 288 287 287 286 286 285 285 284 284 284 284 284 284 284 284 284 284 283 283 283 282 282 282 282 283 283 282 283 283 283 283 283 283 283 282 282 281 281 280 280 282 286 289 288 287 287 286 286 285 284 283 279 277 276 276 276 276 276 277 277
296 296 295 295 295 294 294 294 294 293 293 293 293 292 292 292 291 290 289 289 288 288 288 288 289 289 290 290 291 290 288 288 289 291 290 290 290 289 289 288 288 288 287 287 286 286 285 285 285 284 284 284 284 284 284 284 284 284 284 283 283 283 283 283 282 282 282 282 282 282 282 282 282 282 283 282 282 281 281 280 280 280 280 282 285 287 287 286 286 285 285 284 284 284 280 277 275 275 275 275 276 277 277
295 295 295 295 295 294 294 294 294 293 293 293 292 292 292 291 290 289 289 288 288 288 288 288 289 289 290 291 291 289 288 289 290 290 289 289 289 288 287 287 287 287 286 286 285 285 285 284 284 284 284 284 285 284 285 285 284 284 284 283 283 283 283 283 282 282 282 282 282 282 282 282 282 283 283 283 282 281 279 279 279 279 279 281 284 287 286 286 285 285 284 284 284 284 280 277 275 275 275 275 276 276 277
295 295 295 295 295 294 294 294 293 293 293 292 292 292 291 290 290 289 288 288 288 288 288 288 289 290 291 291 290 288 289 290 290 289 289 288 287 287 287 287 287 286 285 285 284 284 284 284 284 284 284 284 284 285 284 284 284 284 283 283 283 283 283 283 282 282 282 282 282 282 282 282 283 283 283 282 281 280 279 279 279 280 279 280 283 287 286 286 285 284 284 284 284 284 281 277 275 275 275 275 276 276 276
295 295 295 294 294 294 293 293 293 293 292 292 292 291 290 290 289 288 288 288 288 288 288 288 289 290 291 290 289 289 290 290 289 289 288 287 286 286 286 286 286 285 285 284 284 283 283 284 284 284 284 284 284 284 284 284 283 283 283 283 283 283 283 283 282 282 282 282 281 282 282 282 282 283 281 280 280 279 279 279 280 280 278 280 284 286 286 285 285 284 284 284 284 284 280 277 275 275 275 275 276 276 276
295 295 295 294 294 293 293 292 292 292 292 291 291 291 290 289 289 288 288 288 288 287 288 289 290 290 291 290 289 290 290 289 288 288 287 287 286 286 285 285 285 284 284 283 283 283 283 283 283 283 283 283 283 283 283 283 283 283 283 283 283 283 283 283 283 282 282 282 281 281 281 281 281 280 279 279 279 279 279 279 279 280 278 280 285 286 285 285 284 284 284 284 284 284 279 276 275 275 275 275 275 276 276
Wind_Speed
6 7 6 7 8 10 10 10 10 10 10 10 9 9 9 9 8 8 8 7 8 8 8 8 8 7 7 7 6 6 5 5 5 4 4 4 4 4 4 5 5 4 4 4 4 4 4 4 3 3 3 3 4 4 5 5 6 7 7 7 7 5 5 5 5 4 5 5 4 4 4 3 3 3 3 3 3 3 3 2 2 2 2 2 3 4 4 3 3 4 3 3 3 3 4 3 3 3 3 3 2 3 3
1 3 4 3 4 6 8 9 9 9 9 8 8 8 9 9 8 8 7 7 7 8 8 9 9 7 7 7 6 6 5 5 4 4 4 4 3 3 3 4 4 4 4 4 3 3 3 3 2 2 2 2 3 4 4 5 6 7 7 7 6 6 6 6 5 4 5 5 4 4 4 3 3 3 3 3 3 3 3 2 2 2 2 3 4 4 5 4 4 4 3 3 2 2 2 3 3 3 3 3 2 2 2
2 1 2 2 3 4 5 7 8 8 7 6 6 6 7 8 8 7 6 6 6 9 10 10 9 8 7 7 7 6 6 5 4 4 4 4 4 3 3 3 3 3 3 3 3 3 3 2 2 2 2 2 3 3 4 5 6 7 7 7 6 6 5 5 4 4 4 4 4 4 4 3 3 3 3 3 3 3 2 2 2 2 2 3 3 3 3 4 3 3 3 2 1 1 2 2 3 3 3 3 3 2 2
3 1 2 3 4 4 4 6 7 7 7 5 4 4 5 5 6 5 4 4 5 8 10 11 10 8 7 7 7 7 7 7 6 4 4 4 4 3 3 3 3 3 3 2 2 2 3 3 2 2 2 3 3 3 3 4 5 7 6 6 5 5 5 4 4 3 3 4 4 4 4 3 3 3 3 3 3 3 3 2 2 2 2 2 2 2 2 3 3 2 3 2 2 1 2 2 2 3 3 3 3 3 2
5 1 2 4 5 4 3 4 5 6 5 4 3 2 3 3 2 2 2 3 4 6 9 10 9 7 7 7 6 6 6 6 6 4 4 3 3 3 3 3 3 2 3 2 2 1 2 2 2 2 2 2 2 3 3 3 3 5 5 5 5 5 5 4 3 3 4 4 4 4 4 4 4 4 3 3 3 3 3 3 3 3 2 2 2 2 2 2 2 2 3 3 3 2 2 2 2 2 2 3 3 3 2
8 4 1 1 2 2 1 1 3 3 2 3 3 3 2 2 2 2 2 1 2 4 6 7 8 7 7 7 7 6 5 3 2 0 1 1 2 2 3 3 3 3 3 3 2 1 0 1 1 1 2 2 3 3 3 2 2 3 4 5 5 5 4 3 3 3 3 3 3 3 4 4 4 4 4 4 4 3 3 3 3 2 2 2 2 2 2 2 2 2 2 3 3 3 3 3 3 3 2 2 3 3 3
9 7 4 3 4 3 3 4 4 4 5 5 5 4 4 3 3 3 2 1 1 1 3 6 7 7 7 7 6 6 2 2 5 5 6 6 4 3 1 3 3 3 3 3 3 2 1 1 2 3 3 3 3 3 3 2 1 1 2 3 3 4 4 3 2 2 3 3 3 3 3 4 5 6 6 5 4 3 2 2 2 2 2 2 2 2 2 2 3 3 3 3 3 3 3 3 2 3 3 3 3 4 3
10 8 6 5 5 5 5 4 4 5 5 4 3 3 3 3 3 2 2 2 2 2 2 4 7 9 9 8 7 5 0 3 5 5 6 7 7 6 2 1 3 4 4 4 3 3 2 3 3 3 3 3 2 2 2 2 1 1 1 2 2 4 4 3 2 2 2 3 3 3 4 6 7 7 6 4 3 2 2 2 2 2 2 2 2 2 3 3 3 3 3 3 3 2 2 2 2 2 3 3 3 3 3
12 11 9 7 5 5 5 4 3 4 3 2 1 1 1 1 1 1 1 1 2 3 2 2 5 8 9 9 7 5 3 0 3 4 4 4 4 4 2 1 2 3 3 3 3 3 3 3 3 2 2 2 2 2 2 2 1 1 1 1 1 3 2 2 2 2 2 3 4 5 5 6 7 6 5 3 2 2 2 1 1 1 1 1 2 2 3 3 3 3 3 3 3 3 2 2 2 2 3 3 3 3 3
11 12 11 9 8 7 6 5 4 3 3 2 1 1 1 1 1 2 2 2 3 3 4 3 3 4 7 7 6 5 5 3 2 3 3 3 3 3 2 1 2 2 2 2 2 2 2 2 2 1 1 0 0 1 1 1 1 1 1 1 1 2 2 1 2 2 3 4 5 6 6 6 6 4 3 3 3 2 1 1 1 1 1 1 2 2 2 2 2 2 2 3 3 3 2 2 3 3 3 3 3 3 3
10 11 12 11 10 10 9 8 6 5 4 4 3 3 2 2 2 1 2 2 3 4 4 4 4 4 3 4 5 6 5 4 4 4 3 4 5 4 3 2 3 3 3 2 2 1 1 0 1 2 2 2 1 1 1 1 1 1 1 1 1 2 2 2 2 3 4 4 5 6 5 5 3 2 2 2 2 1 1 0 1 1 1 1 2 2 2 2 3 3 3 3 3 3 2 2 2 3 2 2 2 4 4
10 11 11 11 11 10 10 9 8 7 6 6 5 4 4 4 4 3 3 3 3 4 4 4 4 3 1 2 4 6 6 6 6 5 4 4 4 2 1 2 2 1 2 2 3 2 1 1 1 2 2 2 2 2 2 1 1 1 1 1 1 2 2 2 2 2 3 3 4 4 3 1 1 2 2 2 2 1 0 0 1 1 2 2 2 2 3 3 3 3 3 3 3 3 2 2 2 2 2 2 2 4 4
10 10 10 10 10 10 9 8 8 8 7 6 6 6 7 7 7 7 6 5 5 5 4 4 2 3 6 6 4 3 3 4 5 6 3 2 1 2 3 4 4 3 1 2 3 3 2 1 1 1 1 1 1 2 2 2 1 2 2 2 1 1 1 1 0 1 1 2 2 2 1 2 3 3 3 2 1 1 0 1 2 2 2 3 3 3 4 4 3 3 3 3 3 3 2 2 2 2 2 2 2 3 4
10 9 9 9 9 8 7 7 7 7 7 7 8 9 11 11 12 12 11 10 9 8 5 5 7 9 10 9 7 6 6 5 5 4 4 3 3 3 3 3 3 2 1 2 2 2 1 1 1 1 1 1 1 1 1 2 1 1 1 1 0 0 1 1 2 1 2 2 2 2 2 3 3 3 2 1 1 1 2 3 3 3 4 3 3 3 4 3 3 2 2 2 1 2 2 1 1 1 2 2 2 3 3
11 11 10 11 10 9 8 7 7 8 8 9 10 11 13 13 13 13 13 13 13 11 8 9 11 12 11 10 9 9 9 9 7 6 6 5 3 2 2 1 1 1 2 2 2 1 1 0 0 0 1 1 1 1 1 1 1 0 1 1 1 1 2 2 2 2 2 2 2 1 1 2 2 2 2 3 5 5 5 5 5 5 5 4 3 3 3 3 3 3 2 1 1 1 1 1 2 2 2 3 3 3 3
11 12 12 12 12 12 11 10 10 11 12 12 12 12 13 13 13 13 13 14 13 12 10 11 12 12 10 9 8 8 9 9 7 5 5 4 2 1 1 1 2 3 3 3 2 2 2 2 2 2 2 2 2 2 2 2 2 2 2 2 2 2 2 1 2 2 3 3 4 4 5 6 6 7 7 9 10 10 9 9 8 6 5 4 3 3 2 2 2 2 2 2 2 2 2 2 3 4 3 3 3 3 3
11 11 11 12 12 12 13 13 14 14 14 14 13 13 13 13 13 13 13 13 13 12 11 11 11 10 7 6 6 6 6 5 4 3 3 3 2 1 2 3 4 4 4 3 3 3 3 2 2 2 2 2 2 1 2 2 2 3 2 2 2 1 1 2 2 3 3 5 6 7 8 9 10 11 11 11 11 11 11 10 8 6 4 3 2 2 2 1 1 2 2 2 3 3 3 3 4 5 4 4 4 4 4
10 9 10 11 12 13 13 14 14 13 14 14 13 13 14 14 13 13 13 13 13 12 10 9 9 7 5 4 5 5 5 4 4 3 2 2 3 3 3 4 4 4 4 4 3 3 3 3 3 3 3 2 2 2 2 2 2 2 2 2 1 2 2 2 3 4 4 5 6 7 8 9 9 11 11 10 10 10 9 7 5 4 2 2 2 2 1 1 1 1 2 2 3 3 4 4 5 6 5 5 4 4 4
10 9 10 11 12 12 13 13 12 12 12 13 13 14 14 13 12 12 12 12 12 11 10 9 7 6 4 4 4 4 4 4 5 4 3 3 3 4 4 4 4 4 4 4 3 3 3 3 3 3 2 2 2 2 3 2 2 2 2 2 2 2 3 3 4 4 4 5 5 6 7 8 8 9 8 8 8 7 5 3 2 2 2 2 1 1 0 1 2 2 3 3 3 4 4 5 5 6 6 5 5 5 5
10 10 10 10 10 11 12 12 11 11 11 11 12 13 13 12 11 11 11 11 11 10 10 9 8 7 7 6 6 5 5 6 6 6 5 5 5 6 5 4 4 4 3 3 2 1 2 2 2 2 1 2 2 2 2 2 2 3 3 3 3 3 4 4 4 4 4 5 5 5 6 6 7 6 5 5 3 2 1 1 2 2 1 1 0 1 1 2 3 3 4 4 4 4 4 5 5 6 6 6 6 5 5
9 10 10 9 9 10 11 11 10 9 9 10 11 11 11 11 11 10 10 10 10 10 10 10 10 9 8 8 7 6 6 6 7 7 6 6 6 5 4 4 3 3 2 1 1 1 1 1 1 1 1 1 1 2 2 2 3 3 3 4 4 4 5 5 5 4 4 4 4 4 5 5 4 3 3 2 2 2 2 2 2 2 2 2 2 3 3 4 5 5 5 4 4 5 5 5 6 6 6 6 6 5 5
8 8 9 9 9 9 9 9 8 8 9 9 9 9 9 9 10 10 9 9 9 9 10 10 10 9 8 7 7 6 6 6 7 6 5 5 5 3 3 2 2 2 1 0 1 1 1 1 1 1 1 1 2 2 2 3 3 4 4 4 4 5 5 4 4 5 4 4 4 4 4 4 3 3 3 3 3 3 3 3 2 2 3 4 4 5 5 6 7 6 6 5 5 5 6 6 7 8 6 5 5 5 5
6 7 7 7 8 8 7 7 7 7 6 6 7 7 7 8 8 8 8 8 8 8 9 9 9 9 7 5 5 5 5 5 5 4 4 3 2 1 1 1 1 1 1 1 1 2 2 2 2 2 3 3 3 3 3 4 4 4 4 5 5 5 4 4 4 4 4 3 3 3 3 3 3 4 4 4 4 4 4 4 4 4 5 6 7 8 8 9 9 8 7 6 5 5 6 7 8 7 6 5 5 5 5
6 5 6 6 6 6 6 6 5 5 4 4 4 4 5 6 6 7 7 7 7 8 8 9 9 8 7 5 4 4 4 4 3 3 3 2 2 2 2 2 2 2 3 3 3 4 4 4 4 4 4 4 4 4 4 4 4 5 5 5 4 4 5 5 4 4 3 2 2 3 3 4 4 4 5 5 5 6 6 6 7 7 7 8 9 9 10 10 10 9 7 5 4 5 6 7 7 6 6 6 6 6 6
6 5 5 5 6 6 5 5 4 4 3 3 3 4 4 5 5 6 6 7 7 7 7 7 7 7 7 7 7 6 5 5 4 5 4 4 4 4 4 4 4 5 5 5 5 5 5 5 5 4 4 4 5 5 5 5 5 5 5 5 5 4 4 4 4 3 3 3 3 4 5 6 6 6 7 7 7 7 7 7 8 8 8 8 8 8 9 9 8 7 6 5 5 5 6 6 6 6 6 6 7 6 7
6 6 6 6 6 6 6 6 5 5 4 4 4 4 5 5 6 7 7 8 8 7 7 7 6 7 7 8 9 9 8 8 8 8 7 6 6 5 5 6 6 7 7 7 6 5 5 5 5 4 4 4 4 4 5 5 5 5 5 5 5 4 4 4 4 4 4 4 4 6 7 7 7 7 8 8 8 8 8 8 7 7 7 7 7 7 7 7 7 7 6 6 5 5 6 6 6 6 7 8 8 8 8
6 6 6 6 7 8 8 8 8 7 7 6 6 6 7 8 8 9 9 9 9 8 8 8 7 7 7 8 9 10 10 9 9 9 9 8 8 6 7 8 8 8 8 7 7 6 6 5 5 5 5 5 5 5 5 5 5 5 5 5 5 5 4 4 4 4 5 5 6 7 7 7 7 7 7 7 7 7 7 7 7 7 7 7 7 7 7 7 7 7 7 6 6 5 6 6 7 7 8 9 10 10 8
6 6 6 7 8 9 9 9 9 9 8 8 9 9 10 10 10 10 10 10 10 10 10 10 9 8 9 9 9 10 10 9 9 9 9 8 8 7 8 8 8 8 7 7 7 7 7 6 5 5 5 5 5 5 4 4 4 4 4 4 4 4 5 5 4 4 4 5 6 6 6 6 6 6 6 6 6 6 6 6 7 7 7 8 8 8 8 7 7 8 7 7 6 6 7 8 9 9 9 9 9 9 7
5 5 6 7 8 8 8 8 9 9 10 10 10 10 10 10 10 9 9 10 10 11 11 11 10 9 9 10 10 10 10 9 9 8 8 8 8 8 7 7 7 7 7 7 7 7 7 6 5 5 5 6 5 4 4 4 4 3 3 3 4 4 4 4 4 3 4 4 4 5 5 5 5 6 6 6 6 6 6 6 7 7 8 8 8 8 9 9 9 9 8 7 7 8 10 10 10 9 8 7 6 6 5
5 5 6 7 7 7 8 8 8 9 9 10 10 10 10 10 10 10 10 10 10 10 10 10 10 10 10 10 10 10 10 9 9 9 9 9 9 8 7 7 7 7 7 7 6 6 7 6 5 5 6 5 5 4 4 3 3 3 3 3 4 4 4 3 3 3 3 3 4 4 5 6 6 6 5 5 5 6 6 7 8 8 8 9 9 9 9 10 10 10 8 7 7 8 8 9 9 9 9 7 6 5 4
5 6 7 7 7 7 7 8 8 8 8 8 9 10 10 10 10 11 11 11 11 11 10 10 10 10 10 9 9 9 9 9 9 9 8 8 9 8 7 7 7 7 7 7 7 6 7 6 5 5 6 5 4 3 3 4 4 4 4 4 4 4 4 3 3 3 3 4 4 5 6 6 6 6 6 6 6 7 7 8 8 9 9 9 9 9 10 10 10 9 8 7 7 6 7 8 9 10 9 8 7 6 5
6 7 8 8 8 7 7 7 7 7 7 8 8 9 9 9 10 10 11 11 11 11 10 9 9 8 8 8 8 8 8 9 9 8 7 8 8 7 6 6 6 6 7 7 7 7 7 7 6 6 6 5 4 3 4 4 4 4 4 5 5 5 4 4 4 4 5 5 6 6 6 6 6 6 6 7 7 7 7 8 8 8 9 9 9 10 10 10 9 8 7 7 6 6 6 7 8 8 8 8 8 7 6
6 7 7 7 7 7 7 7 7 7 8 8 9 10 9 9 9 9 10 10 10 10 9 9 8 7 7 7 8 9 9 9 9 9 8 7 7 6 5 5 5 6 6 6 6 6 7 7 7 7 6 6 5 4 4 4 5 5 6 6 6 6 5 5 5 5 6 6 7 7 7 7 7 7 7 7 7 7 8 8 8 9 9 10 10 11 11 11 10 8 6 6 5 5 5 6 7 9 9 9 9 9 7
6 6 7 7 7 7 7 7 7 7 8 8 8 8 8 8 8 8 9 9 9 9 9 8 8 7 7 8 8 8 9 9 8 8 7 6 5 5 5 5 5 5 5 5 5 5 6 6 6 7 7 6 6 5 5 5 5 6 7 8 8 6 6 5 6 6 7 7 8 8 8 8 8 8 8 9 9 9 10 10 11 10 11 12 12 11 11 12 11 8 6 6 5 5 5 6 7 9 9 10 9 7 5
6 7 7 7 7 7 7 7 7 7 7 7 8 8 8 8 8 8 8 8 8 8 8 8 7 7 7 8 8 8 7 7 7 7 6 5 4 4 4 4 4 4 5 5 5 5 6 6 6 7 7 7 8 8 8 8 8 8 9 9 8 7 7 7 8 8 9 9 10 10 10 9 9 9 9 10 11 11 12 13 13 12 13 13 13 12 11 11 10 8 7 6 6 5 6 7 8 9 9 9 8 5 5
7 7 7 7 7 6 6 7 7 7 7 8 8 8 8 8 8 8 7 8 8 8 8 7 7 7 7 7 7 7 7 7 7 7 6 5 4 4 4 4 4 4 4 4 5 5 6 7 7 8 8 9 10 10 11 11 11 11 11 10 9 8 9 10 10 10 10 10 10 10 10 10 10 10 10 11 12 13 13 14 14 13 14 13 13 12 11 9 8 8 7 7 7 7 7 8 10 11 10 10 9 7 7
7 8 7 7 7 7 7 7 7 8 8 8 8 8 8 7 8 8 8 8 8 8 7 7 7 7 7 7 7 7 7 7 7 7 6 5 4 4 4 4 4 4 4 5 5 6 7 8 8 9 9 10 11 11 12 12 11 11 12 11 11 11 11 11 11 11 11 10 10 9 9 10 10 10 11 11 11 12 13 13 13 13 13 13 13 12 11 10 9 10 10 10 10 10 9 9 11 13 12 12 11 11 11
8 8 8 8 8 7 7 7 7 8 8 8 8 8 7 7 7 8 8 7 7 7 7 7 7 7 7 7 7 6 6 6 6 6 5 5 5 5 6 5 5 5 5 5 6 7 8 9 9 9 9 10 11 12 12 11 11 11 12 12 12 12 11 10 10 10 10 10 9 9 9 9 9 9 9 9 10 11 11 12 12 12 13 13 13 13 13 12 12 12 13 13 13 13 11 11 13 14 13 13 13 13 13
8 8 8 8 8 8 7 8 8 8 7 7 7 7 7 7 7 7 7 7 6 6 7 7 7 7 7 7 7 6 6 6 6 6 6 6 6 6 6 6 6 6 6 7 7 8 10 10 10 10 9 10 11 12 12 11 11 11 11 12 11 11 11 10 9 9 8 8 9 9 9 9 9 8 9 9 10 10 11 11 11 12 13 13 13 13 13 14 14 13 14 14 14 14 13 13 13 14 13 13 13 13 13
8 8 8 8 8 8 8 8 8 8 8 7 7 7 7 7 7 7 7 6 6 7 7 7 8 8 8 8 8 7 7 7 7 6 6 6 6 7 7 7 7 7 7 8 9 11 11 11 11 11 10 10 11 12 12 11 10 10 10 10 10 11 10 9 9 9 8 8 8 9 9 9 9 9 10 10 10 10 10 11 11 11 12 12 12 12 12 12 13 13 13 13 13 13 13 13 13 13 12 12 12 12 11
8 8 8 8 8 8 8 8 8 8 7 7 7 7 7 7 7 7 7 7 7 7 8 8 8 8 8 8 8 8 8 8 7 7 7 7 7 7 7 7 7 8 9 10 11 12 13 12 11 10 9 9 10 10 11 10 10 9 9 9 10 10 9 8 8 8 8 8 8 8 9 9 9 10 10 10 10 10 10 10 10 10 10 10 10 10 10 10 10 10 10 10 10 11 11 11 11 11 11 11 11 11 10
7 7 8 8 7 7 7 7 7 7 7 7 7 7 7 7 7 7 7 7 8 8 8 8 8 8 8 8 8 9 8 8 7 7 7 7 7 8 8 8 8 9 10 11 12 13 13 12 11 10 9 9 9 10 10 9 9 8 8 9 9 9 8 8 8 8 8 7 7 7 8 8 8 8 9 9 9 9 9 9 9 9 8 8 8 8 8 8 8 7 7 8 8 9 9 9 10 10 10 10 10 10 10
7 7 7 6 6 7 7 7 7 7 7 7 7 7 7 7 7 7 8 8 8 8 8 8 8 8 9 9 9 9 9 8 7 7 8 8 8 8 9 9 10 11 11 12 12 12 12 12 11 10 9 9 9 9 9 8 8 8 8 8 8 8 8 8 8 7 7 6 7 7 7 7 7 7 7 7 7 7 7 7 7 6 6 6 5 5 5 5 5 5 5 6 6 7 7 7 7 8 8 8 8 8 8
6 6 6 6 6 6 7 7 7 7 7 7 7 7 7 8 8 8 9 9 9 9 8 8 8 9 9 9 9 9 9 8 8 8 8 9 9 8 9 10 11 11 11 11 11 11 11 10 10 9 9 8 8 8 8 8 8 9 8 8 7 7 7 6 6 6 6 6 6 7 7 6 6 6 6 6 6 5 5 5 5 5 4 4 3 3 3 3 3 4 4 4 5 5 5 5 5 5 5 5 6 6 6
6 6 6 6 6 6 6 7 7 7 7 7 8 8 8 8 9 9 9 9 9 9 9 9 9 9 9 9 9 8 8 8 8 8 9 8 8 8 9 10 10 10 10 10 10 10 10 9 9 8 8 8 7 7 8 8 8 7 7 7 6 6 5 5 5 5 6 6 6 6 7 6 5 5 5 5 5 4 4 4 5 4 4 3 3 2 2 2 3 3 3 4 4 4 4 4 4 4 4 4 4 4 5
6 6 6 6 6 6 6 6 6 7 7 8 8 8 9 9 9 9 9 9 10 9 9 9 9 9 9 9 8 7 7 8 8 8 8 7 7 8 9 9 9 9 9 9 9 9 9 8 8 7 7 7 6 6 6 6 6 6 6 6 5 5 5 5 5 5 6 6 6 6 6 6 5 4 5 5 5 5 5 5 4 4 4 4 3 2 2 2 2 2 3 3 4 4 4 4 4 4 4 4 5 4 5
7 6 5 5 6 6 6 6 6 7 8 8 8 9 9 9 9 9 9 9 8 8 8 9 9 9 9 9 8 7 7 8 8 8 7 6 6 7 8 8 7 7 7 8 8 8 8 7 7 6 6 6 6 6 5 5 5 5 5 5 5 5 5 5 5 5 5 6 6 6 5 5 5 4 4 5 5 5 5 5 5 4 4 5 4 3 2 2 2 2 3 3 4 4 5 5 5 5 5 5 6 6 6
6 5 5 5 6 6 6 6 7 7 7 8 8 9 8 8 8 9 9 9 9 8 8 8 9 9 9 9 9 8 8 8 8 8 7 5 6 7 7 6 6 6 7 8 8 7 7 6 6 6 5 5 5 5 5 5 5 5 4 4 5 5 5 5 5 4 4 5 5 5 5 5 5 4 4 5 5 5 5 5 5 5 5 5 5 5 3 2 1 2 2 3 4 4 5 5 5 6 6 6 6 7 7
6 6 6 6 6 7 7 7 7 7 7 8 8 8 8 8 9 9 9 9 9 8 8 8 9 9 9 9 9 8 8 8 8 8 6 5 6 6 6 5 6 7 8 8 7 5 5 5 5 5 5 5 5 5 5 5 4 4 4 5 5 5 5 5 5 4 4 4 4 5 5 5 5 4 5 5 6 6 6 6 6 5 5 6 6 5 4 2 1 1 2 3 4 4 4 5 5 6 6 6 7 8 8
6 7 7 7 7 7 7 7 7 7 8 8 8 7 8 8 9 9 9 9 8 8 8 8 8 9 9 8 8 9 8 8 8 7 5 5 6 6 5 6 7 8 8 7 6 5 5 4 5 5 5 5 5 4 4 4 4 4 4 4 4 5 5 5 5 4 4 4 4 4 4 5 4 4 5 5 6 6 7 7 6 6 5 5 5 6 6 3 2 3 3 3 3 4 4 4 5 5 6 7 7 8 9
7 7 7 8 8 7 7 7 7 7 8 8 8 7 8 8 8 8 8 8 7 7 7 8 8 8 8 8 8 8 8 8 7 6 5 6 6 6 7 8 8 8 7 6 5 4 4 4 4 4 4 4 4 4 4 4 4 4 4 4 4 4 4 4 4 4 4 4 4 4 4 4 4 4 4 5 5 6 7 7 6 5 5 4 5 6 5 5 5 5 4 3 3 3 3 4 4 5 6 6 7 8 8
8 7 8 8 8 8 8 8 8 8 8 8 8 8 8 8 8 8 7 7 7 7 7 7 8 8 8 8 8 8 8 8 6 4 5 6 7 7 8 9 8 7 5 4 4 3 4 4 4 4 3 3 3 4 4 4 4 4 4 4 4 4 3 3 3 3 3 3 3 3 4 4 5 4 4 5 5 6 6 6 6 5 4 4 4 6 7 7 6 5 4 4 3 2 2 3 3 4 5 6 6 6 7
8 8 9 8 8 8 8 8 8 7 8 8 8 8 8 8 7 7 7 7 7 7 7 7 7 7 7 8 8 8 8 6 5 5 6 7 8 9 9 8 7 6 4 3 3 3 4 3 3 3 3 3 3 3 3 3 3 4 4 4 4 4 4 3 3 3 3 3 3 3 4 5 5 5 5 5 5 5 6 6 5 4 3 3 4 7 6 5 4 3 3 3 3 2 2 2 2 3 4 4 4 5 5
8 8 8 8 7 7 7 7 7 7 7 8 8 8 7 7 7 7 7 7 7 7 7 7 7 7 7 8 8 8 7 5 5 7 8 8 9 9 8 7 6 5 4 3 3 3 3 3 3 3 3 3 3 3 3 3 3 4 4 4 4 4 4 4 3 3 3 2 3 3 4 5 5 6 5 5 5 5 5 5 4 3 2 2 4 5 4 3 2 2 2 3 3 3 1 1 1 2 2 3 3 4 5
7 6 6 6 6 6 7 7 7 7 7 8 8 7 7 7 7 7 7 7 7 7 7 7 6 6 7 7 8 8 5 4 6 8 9 9 8 7 6 5 4 3 3 3 3 3 3 3 3 2 2 2 2 2 3 3 4 4 4 4 4 4 4 4 4 3 3 3 4 5 5 5 5 6 5 5 4 4 4 3 3 1 1 2 3 3 3 2 2 1 1 2 3 3 2 1 1 1 2 3 3 4 5
5 5 5 5 5 5 6 6 7 7 7 7 7 6 6 6 6 6 6 6 6 6 6 6 6 6 6 7 8 6 4 5 7 9 8 8 7 5 5 4 3 3 3 3 3 3 3 3 3 2 2 2 2 3 3 4 4 4 4 4 4 4 4 4 4 3 4 5 5 5 5 5 6 6 5 4 3 3 3 3 2 1 1 2 3 4 3 3 2 1 1 2 3 3 3 2 1 1 2 2 3 4 5
4 4 4 4 4 4 5 5 5 6 6 5 5 5 5 5 5 5 6 6 6 6 5 5 5 5 7 7 6 5 6 7 7 8 7 6 5 4 3 3 3 3 3 3 3 3 3 3 3 3 3 3 3 3 4 4 4 4 4 4 4 4 4 4 4 4 4 5 6 6 5 5 5 5 4 3 3 2 2 2 2 2 0 2 4 5 4 3 2 1 0 2 3 4 3 3 2 2 2 3 3 4 5
4 4 4 5 5 5 5 5 5 5 5 5 5 6 6 6 6 6 6 6 6 6 5 4 4 5 6 6 5 6 7 8 7 6 5 5 4 3 3 2 3 3 3 3 3 3 3 3 3 3 3 3 4 4 4 5 5 5 5 5 5 4 4 4 4 4 4 4 4 5 4 4 4 4 3 3 3 2 1 2 2 2 1 2 4 5 4 3 2 1 1 2 4 4 3 3 2 2 2 3 3 4 4
4 4 4 5 5 5 5 5 5 5 5 5 6 6 7 7 7 7 7 7 6 6 4 4 4 5 6 5 5 7 8 7 6 5 5 4 3 2 2 2 2 2 2 2 2 2 3 3 3 3 3 4 4 5 5 6 6 6 6 6 5 4 3 3 3 3 3 3 3 3 3 3 3 3 3 3 3 2 2 2 2 3 1 3 5 5 4 4 3 2 1 2 3 4 3 2 2 3 3 3 3 4 4
Wind_Direction
195 184 185 182 179 175 172 171 170 171 173 175 176 179 182 185 189 192 186 175 167 168 170 171 174 179 178 175 170 167 169 173 176 175 170 166 165 171 171 173 176 179 186 194 199 197 195 193 192 191 184 168 154 149 158 160 158 155 155 156 158 162 166 168 168 169 168 165 165 170 180 188 195 205 210 213 217 224 213 202 194 193 205 220 231 236 235 233 229 227 229 236 242 240 236 242 257 276 281 275 261 248 249
219 172 175 188 194 185 171 167 167 170 172 175 178 181 183 186 190 194 187 176 166 162 163 170 177 181 178 172 167 165 168 173 178 180 175 173 172 175 172 174 177 183 189 194 195 192 186 182 180 182 182 166 154 153 160 159 156 153 152 155 160 167 170 172 173 175 171 168 169 178 187 194 203 210 209 209 213 223 220 208 197 200 214 225 230 231 229 229 228 226 221 222 231 240 234 237 246 263 276 276 269 251 246
24 107 146 184 224 230 182 168 164 166 168 174 183 187 184 185 188 193 186 173 161 156 161 170 179 179 175 172 170 170 171 175 180 183 180 178 177 176 173 175 179 184 184 183 182 180 177 171 170 183 188 177 168 165 161 158 156 154 153 155 159 163 166 170 174 178 174 172 174 181 187 195 206 215 211 207 208 220 222 216 207 211 219 225 229 230 227 229 232 236 236 237 246 271 266 253 245 249 262 266 263 257 248
16 89 160 187 208 234 203 174 163 159 163 174 188 190 179 179 181 183 174 157 147 149 162 170 176 174 171 172 175 177 177 177 178 179 181 184 183 178 171 171 174 177 171 169 171 174 170 167 170 180 187 184 177 167 157 155 155 154 152 151 150 148 150 156 164 170 168 169 171 176 182 191 198 208 209 208 209 214 215 215 217 221 227 233 238 240 240 241 244 245 253 254 255 264 276 272 258 237 248 254 256 251 244
342 332 191 192 199 218 210 177 158 151 157 164 170 161 154 154 152 140 135 127 131 142 160 168 172 171 170 173 179 187 184 179 174 172 178 182 182 175 166 162 162 163 158 160 166 175 165 165 166 168 173 170 161 147 142 143 146 146 146 143 139 137 138 143 151 160 162 161 163 170 179 187 194 202 209 213 215 213 212 216 220 224 233 249 260 258 255 256 255 245 247 246 241 231 252 269 273 257 249 253 256 245 237
338 335 346 170 181 197 189 121 114 101 88 78 70 59 52 50 53 62 68 90 118 132 154 165 171 176 176 178 183 191 193 185 171 201 236 215 183 169 162 157 154 154 150 147 145 143 151 132 121 110 112 115 117 116 114 115 122 131 133 133 132 131 131 134 144 160 162 164 167 174 183 192 201 207 215 221 222 218 219 221 223 218 222 237 252 262 258 258 257 252 246 243 240 230 232 246 266 281 278 275 270 259 237
348 343 15 56 76 75 56 43 38 42 34 31 28 24 22 24 29 34 21 6 4 132 152 163 172 181 185 187 187 188 188 339 340 325 315 315 315 297 190 146 136 134 129 127 131 141 131 91 70 62 61 70 84 94 104 110 112 92 105 114 121 124 123 128 141 162 170 176 181 189 203 213 220 225 226 227 225 219 222 225 220 202 196 205 224 243 250 253 253 252 250 247 243 242 238 236 248 273 279 281 278 274 250
5 355 7 35 61 76 71 51 30 35 36 30 18 5 9 13 16 14 359 337 314 286 197 170 171 180 189 194 194 182 113 340 322 306 308 311 310 300 303 96 98 95 92 87 86 93 82 70 61 58 42 38 45 69 88 92 78 54 65 87 107 115 120 128 147 171 187 197 206 216 230 236 238 238 235 230 222 212 207 209 209 192 175 180 201 228 240 243 242 240 238 234 231 230 237 227 221 246 266 272 276 281 272
17 13 8 10 24 52 71 71 62 54 52 43 21 4 355 354 352 316 289 280 276 274 260 204 176 178 187 192 189 166 137 171 281 279 286 292 295 292 294 37 73 64 58 51 45 38 34 35 42 53 40 18 14 41 61 63 55 62 77 104 118 117 124 138 167 204 225 235 241 245 250 253 253 249 237 219 195 175 172 189 205 203 184 193 216 234 238 237 234 229 224 217 208 200 214 215 212 213 249 265 273 282 285
26 27 23 16 10 13 24 36 47 54 60 54 27 330 286 256 227 231 237 243 249 254 259 251 226 193 189 184 175 156 144 158 225 256 260 267 270 261 234 161 103 87 73 57 45 30 24 35 54 86 127 201 309 36 79 85 92 127 147 153 151 144 151 174 213 240 251 258 261 263 264 264 260 249 215 177 156 146 157 194 225 238 229 234 241 245 244 242 238 231 225 217 208 195 201 218 226 220 231 252 269 278 284
34 33 33 31 28 22 20 19 20 22 26 21 7 337 323 323 320 297 273 261 255 254 253 252 249 241 209 172 156 156 150 163 194 229 244 254 251 235 191 139 113 108 108 105 102 107 100 127 169 177 180 177 169 148 139 146 156 162 164 180 190 182 184 200 229 254 264 270 273 275 273 267 253 215 159 133 123 119 140 227 266 274 261 255 254 258 257 253 247 238 230 224 214 193 186 207 233 236 228 243 265 275 276
38 36 35 35 35 32 30 27 24 21 22 14 1 345 351 358 358 345 330 314 297 279 267 258 254 260 341 91 124 149 153 164 180 197 216 236 241 224 92 61 52 53 112 123 124 127 146 200 214 194 180 163 152 153 167 165 154 153 175 196 208 209 203 206 224 268 283 287 288 285 282 269 139 109 93 85 82 80 86 269 270 269 262 259 261 267 263 255 245 233 223 214 204 181 178 193 215 232 229 242 264 274 272
38 37 35 35 35 34 32 31 30 29 25 17 7 4 14 15 11 5 2 355 341 318 297 295 325 30 44 49 63 109 138 153 161 166 178 210 259 10 16 358 333 305 142 130 130 137 161 203 228 202 161 148 151 155 159 153 147 166 185 195 205 224 222 212 118 352 332 326 325 324 51 83 85 72 60 55 51 40 318 274 263 256 254 255 259 263 260 252 243 228 220 207 193 175 184 193 202 212 218 231 250 266 269
32 31 29 27 26 26 24 23 23 23 20 17 15 17 20 18 14 9 8 4 358 348 347 12 37 51 49 47 48 57 66 73 76 75 57 36 13 3 350 315 284 269 117 107 116 131 158 189 211 195 140 133 137 143 135 136 147 187 190 190 204 306 0 21 30 33 19 13 21 57 88 91 85 73 50 17 330 291 270 260 254 249 249 251 254 254 252 247 236 223 225 221 204 183 186 198 216 224 224 231 240 251 264
30 28 25 23 20 17 15 13 12 12 15 18 21 25 25 22 18 14 11 9 7 7 22 43 54 56 52 50 50 53 51 48 42 27 20 15 5 340 303 275 254 75 56 48 43 51 73 90 78 46 39 35 28 25 65 78 72 330 1 12 17 13 20 17 15 19 16 14 14 26 45 47 35 9 321 295 282 271 258 248 243 242 243 244 246 244 238 230 218 207 209 224 250 254 241 248 255 255 249 244 243 245 256
34 30 28 26 25 24 24 22 19 17 20 22 25 28 28 25 21 19 17 16 17 21 36 51 59 58 55 53 52 52 47 42 35 18 9 354 334 302 294 37 54 60 49 35 23 26 30 27 23 31 30 24 16 11 33 37 25 357 2 8 13 15 13 0 348 345 341 334 326 317 319 320 317 309 295 283 273 265 253 243 236 236 235 235 233 228 218 209 202 198 195 208 230 248 252 253 255 257 255 251 246 243 249
37 34 32 31 31 32 34 32 30 25 24 24 25 28 28 26 24 22 21 22 26 31 41 52 60 61 58 57 58 60 56 53 46 28 1 338 328 7 49 57 58 62 58 42 25 23 27 25 25 32 32 24 12 8 29 29 18 0 358 0 4 356 342 331 325 322 318 316 314 313 314 312 306 296 283 273 264 257 248 240 234 231 226 217 207 199 194 198 207 210 213 223 232 240 246 251 253 255 255 253 248 241 242
39 35 34 34 35 37 38 37 34 29 25 23 23 25 26 26 25 23 23 25 29 33 41 50 57 60 58 58 62 71 76 82 85 79 38 7 5 29 51 61 64 66 61 47 30 20 24 26 27 28 23 14 6 6 18 18 9 352 349 344 334 314 310 310 310 308 308 307 307 306 305 299 291 281 272 265 258 251 244 237 226 215 193 174 169 173 178 201 241 254 261 261 261 261 264 264 262 257 255 252 247 241 237
38 36 35 35 36 38 40 39 37 31 26 23 22 23 24 25 24 24 24 25 27 30 35 40 42 39 32 33 42 56 64 72 78 83 75 62 55 57 65 69 69 66 58 48 36 23 23 27 29 25 11 0 355 1 6 2 354 340 331 321 311 305 306 306 305 304 304 304 303 300 296 290 283 276 271 264 257 250 239 219 185 156 141 139 146 161 209 283 297 298 297 294 290 287 285 278 269 259 253 248 244 239 237
39 38 37 36 36 38 39 39 36 33 29 25 22 21 21 22 22 23 24 24 24 26 30 31 28 18 12 12 17 28 38 49 58 66 68 69 67 64 65 66 67 63 59 55 50 44 41 40 40 32 6 347 345 356 355 349 341 332 323 317 314 313 311 308 306 305 306 304 302 298 293 288 284 282 282 280 275 258 168 115 107 100 96 89 46 354 329 318 312 309 305 302 298 295 289 281 271 259 252 246 241 239 237
46 45 44 42 40 40 39 38 35 33 29 26 23 21 19 18 19 20 22 22 22 23 27 28 25 17 12 13 18 25 33 42 47 50 51 53 54 53 55 59 65 66 68 83 122 127 114 104 94 74 28 349 345 357 352 344 336 331 325 323 320 316 312 310 308 307 306 304 302 300 300 298 301 311 330 351 14 43 52 57 58 54 36 13 356 345 328 317 311 306 302 297 293 289 283 276 268 261 254 247 242 239 238
54 54 54 54 52 51 48 45 40 36 32 28 24 22 19 17 17 18 19 20 21 20 24 26 25 18 15 20 28 39 44 47 48 46 44 44 44 44 47 56 66 72 88 146 153 125 107 96 85 70 33 10 359 0 350 342 335 330 326 323 319 314 311 309 307 304 304 306 309 313 322 329 344 7 19 25 28 31 30 27 24 18 3 351 342 331 320 312 307 301 296 292 289 286 281 275 268 261 256 249 243 238 238
56 58 61 63 64 64 63 60 56 49 42 34 27 24 21 19 18 18 19 20 21 19 21 23 22 16 13 19 32 46 51 53 53 52 46 41 35 26 35 51 59 56 41 45 50 46 43 41 42 40 24 10 359 354 345 339 333 328 323 318 313 309 307 304 302 300 306 315 327 341 351 0 12 21 24 23 21 18 13 6 359 348 338 329 320 313 308 303 298 292 289 288 287 286 282 276 270 263 259 254 248 242 241
50 53 58 63 66 68 70 70 67 62 55 45 35 29 25 24 23 21 22 24 25 22 22 21 18 11 6 8 18 33 39 44 47 48 34 19 5 4 14 24 33 35 32 34 36 34 30 27 26 25 19 9 359 351 344 339 333 328 321 314 309 306 305 303 303 307 322 342 4 13 15 16 15 14 14 12 6 357 349 343 336 328 319 312 305 301 296 292 288 284 284 286 287 285 281 277 273 269 266 262 257 253 250
42 45 50 55 59 61 62 62 62 58 50 43 34 28 26 26 25 23 25 26 26 23 22 20 17 10 2 1 5 14 16 19 24 29 21 11 3 4 12 19 25 30 32 34 35 33 29 26 23 19 15 8 1 354 346 340 333 327 320 315 312 312 314 318 326 343 0 13 20 21 19 15 9 4 2 358 352 343 336 329 323 314 308 303 300 297 294 291 289 290 294 294 291 287 283 280 277 276 274 271 267 263 260
37 39 43 48 51 52 49 47 45 42 36 29 23 21 23 24 23 21 24 24 22 17 15 15 14 10 3 1 4 11 13 17 22 26 25 21 16 14 20 25 29 32 33 33 34 33 29 25 20 13 8 3 358 353 344 337 332 327 323 322 324 330 336 346 357 11 15 16 16 15 9 2 356 353 348 343 338 331 324 319 315 312 312 312 311 308 307 307 308 312 311 306 299 293 288 285 282 281 280 278 274 269 265
34 35 40 43 46 46 44 40 37 36 34 31 29 28 29 28 26 23 25 24 20 14 13 13 13 12 9 9 11 16 19 22 26 30 33 33 31 30 33 35 35 35 33 33 32 31 26 22 16 7 1 356 352 348 341 335 333 333 334 337 343 349 358 6 13 14 13 10 7 3 355 349 344 342 338 334 330 325 322 322 323 325 327 328 328 326 325 324 323 322 318 313 307 303 299 296 293 291 288 285 280 273 268
37 35 39 42 44 44 42 39 36 33 34 35 36 36 35 33 30 28 30 28 25 21 21 20 19 17 16 17 18 20 22 25 29 34 39 41 41 42 40 39 38 37 32 29 27 25 21 17 11 3 355 349 345 341 338 338 341 347 352 356 359 2 9 14 15 9 5 3 1 355 349 344 339 335 333 331 329 328 330 333 336 338 337 335 334 332 330 327 323 321 317 314 311 310 308 304 300 296 293 290 285 281 278
43 42 43 43 44 43 42 40 38 36 36 36 36 36 34 32 30 29 30 30 29 27 26 23 21 18 17 17 17 17 19 22 27 34 39 42 42 42 38 35 32 31 29 27 24 21 17 13 6 357 348 343 340 338 338 345 354 3 8 8 7 7 13 15 12 3 355 353 350 346 339 334 330 327 328 329 331 333 338 340 340 340 337 335 332 328 324 320 317 315 312 310 307 305 302 299 296 294 295 294 293 292 291
45 47 47 46 44 42 40 38 38 39 39 38 37 34 32 29 26 25 26 26 27 26 26 24 21 17 15 14 13 11 15 20 27 34 38 39 38 36 32 27 23 22 21 20 18 15 10 4 358 350 344 339 336 337 347 358 6 9 8 7 7 8 6 3 357 353 345 338 332 330 327 326 326 329 334 339 342 344 343 342 340 338 334 329 325 320 316 312 309 308 305 299 294 290 287 285 285 287 289 291 292 295 300
41 47 47 46 44 42 39 38 37 39 40 40 37 35 32 28 25 22 22 22 22 22 23 22 20 16 14 13 11 11 17 24 31 36 37 37 35 32 28 23 19 16 13 11 9 6 2 357 351 346 340 336 335 343 1 9 8 4 2 2 1 359 353 347 344 342 334 328 327 328 329 332 336 341 348 351 351 348 343 340 336 331 326 322 317 313 310 307 305 303 298 292 287 284 283 284 286 289 290 291 291 292 293
42 47 48 47 45 43 40 39 38 38 39 38 36 34 31 28 25 22 21 21 20 19 18 18 17 14 12 12 13 16 22 28 33 34 33 32 31 28 24 20 16 13 10 7 4 359 356 350 344 339 335 334 337 349 7 11 7 1 359 357 355 353 349 345 341 335 333 332 334 338 343 347 350 352 352 351 349 343 337 333 329 324 320 317 315 314 313 310 308 304 299 298 299 303 305 307 310 312 311 308 304 298 292
47 50 49 47 45 44 42 41 41 40 39 37 36 33 31 28 25 23 22 20 19 17 16 15 13 11 11 13 17 21 26 30 32 32 28 27 26 25 21 17 12 9 7 3 359 353 348 342 337 333 333 335 339 351 5 10 8 2 359 356 354 353 349 342 338 337 338 341 346 353 356 357 356 354 350 347 343 338 333 330 327 324 323 322 322 321 319 317 314 310 308 313 323 334 333 332 331 331 326 319 313 307 305
51 53 50 46 43 43 43 43 43 42 41 39 37 33 30 28 25 23 22 20 18 17 17 15 13 12 13 16 20 23 25 28 29 29 26 23 23 23 19 15 10 6 0 355 350 345 340 335 333 335 341 347 352 358 6 10 11 9 5 2 359 354 348 346 346 348 351 356 1 5 3 0 358 355 351 347 345 343 341 339 337 335 333 331 329 327 323 320 319 318 327 339 349 352 345 340 339 339 333 328 323 320 330
52 52 49 45 41 39 40 41 42 43 41 38 36 33 30 27 25 24 22 20 18 18 17 16 16 18 19 21 23 23 21 21 22 21 17 16 16 20 18 14 8 0 352 346 342 338 334 336 341 350 0 8 12 12 14 17 19 19 16 12 7 1 0 1 2 1 2 5 7 8 4 2 0 359 357 354 352 351 349 347 345 342 339 336 332 330 327 325 327 336 350 358 359 357 352 352 353 355 351 346 343 344 358
52 49 47 43 40 36 36 37 38 40 38 36 33 30 27 25 24 24 23 21 19 19 17 16 18 22 23 23 22 20 16 13 12 9 7 6 7 10 11 8 2 352 344 340 338 337 341 351 2 13 21 25 25 23 22 23 25 25 23 20 16 14 12 10 8 5 6 7 8 7 4 3 2 3 1 359 357 355 354 352 350 347 345 342 338 337 337 340 348 2 5 6 6 8 8 10 12 12 10 6 4 4 7
53 49 45 42 38 35 34 34 35 37 37 34 31 28 25 23 23 25 24 22 19 18 17 17 18 22 22 21 19 15 11 7 5 3 1 1 1 3 2 359 354 346 340 339 341 348 2 15 24 31 34 33 30 28 26 25 25 26 24 21 18 17 14 10 7 4 5 6 7 5 3 2 3 4 4 3 1 360 358 357 356 355 354 353 353 354 359 4 10 15 14 14 16 19 23 24 23 21 20 18 16 17 21
54 49 45 41 38 35 34 34 35 35 35 33 31 27 25 24 24 25 24 21 19 18 17 17 18 21 18 15 12 10 5 1 358 358 359 0 1 2 1 356 350 345 344 347 356 9 24 32 36 37 37 33 30 28 26 24 22 22 21 19 17 15 12 8 4 1 2 4 5 2 1 2 4 6 8 9 9 8 7 5 5 6 7 8 10 13 15 17 18 18 18 20 22 25 27 28 27 26 25 24 24 25 29
52 47 43 40 36 34 34 34 34 33 32 31 29 26 24 23 23 23 22 20 19 18 16 16 16 18 14 8 4 2 359 355 353 354 357 0 1 1 358 354 350 349 355 4 16 30 37 38 37 34 33 31 28 26 24 21 19 18 18 17 16 13 10 7 2 358 0 3 5 2 2 3 6 11 15 18 19 19 17 15 15 16 17 19 20 22 21 20 19 18 18 20 22 25 27 29 29 29 29 28 27 27 29
48 43 40 36 33 31 32 32 31 30 28 27 25 24 22 21 20 20 19 19 18 18 16 16 15 14 9 3 359 356 353 350 349 350 354 357 359 358 354 352 353 360 11 23 33 40 40 38 35 32 30 28 26 24 21 18 16 15 15 16 15 11 9 6 3 359 1 4 6 6 5 7 11 16 21 23 25 25 24 23 23 24 24 25 25 25 24 22 21 19 19 19 21 23 25 27 28 29 28 26 24 21 20
43 39 36 33 31 29 30 30 29 28 25 24 23 21 20 19 18 18 18 18 18 17 16 15 14 10 4 359 355 351 348 346 346 348 353 356 358 356 354 356 3 15 28 35 40 42 40 38 35 32 29 27 24 22 19 17 16 14 14 15 14 11 9 8 7 5 5 6 8 9 11 13 15 19 22 24 24 24 25 26 29 30 30 29 29 28 27 25 23 22 21 21 21 22 22 23 24 24 22 19 15 11 7
41 36 33 30 28 27 28 28 27 25 23 21 20 18 18 18 18 18 18 19 18 17 15 13 10 5 360 355 351 347 344 343 346 350 355 358 360 359 1 8 18 30 37 40 41 41 40 39 37 34 31 27 25 22 19 18 17 16 15 16 16 14 13 13 13 11 11 10 10 12 16 17 17 18 21 22 22 22 23 26 30 34 34 33 32 31 30 27 25 23 23 23 23 23 22 21 21 20 18 13 9 4 0
39 35 31 28 26 25 26 25 24 22 19 18 17 18 18 18 18 19 20 20 19 15 12 9 5 1 356 352 349 346 345 347 351 357 1 3 6 9 17 25 33 39 40 41 41 41 41 40 39 36 34 30 27 24 22 21 22 23 21 21 21 20 20 18 16 14 14 13 13 14 17 18 18 16 18 19 19 19 21 24 27 31 33 34 34 35 33 29 25 21 20 21 22 23 23 22 20 19 15 9 3 357 352
38 32 29 26 25 25 24 23 22 19 17 16 17 19 20 21 21 21 20 19 16 12 7 4 1 358 355 352 349 348 350 354 359 5 6 8 12 22 33 38 41 42 42 43 43 42 42 41 40 38 36 33 30 29 28 28 29 30 29 28 25 23 22 22 19 14 12 12 14 15 16 16 15 12 11 12 13 13 14 16 17 17 19 22 27 29 27 22 14 9 10 13 16 19 20 19 18 16 10 2 353 345 339
35 30 27 25 24 24 23 22 20 18 17 18 19 22 23 24 23 21 18 15 12 8 4 0 358 356 355 353 352 352 356 0 5 8 8 11 19 34 42 45 45 46 47 47 47 46 45 43 41 40 38 37 35 34 34 33 34 35 34 31 26 20 18 19 18 15 10 9 10 10 10 8 6 3 1 1 1 1 1 1 1 357 356 357 359 4 1 359 356 354 358 2 7 10 10 8 5 0 351 341 332 324 319
33 29 26 24 23 24 22 21 21 21 22 22 23 24 24 23 22 19 15 12 8 4 1 358 356 355 355 355 356 357 360 3 6 6 6 12 26 43 48 50 49 51 52 53 52 51 48 46 43 41 41 40 39 38 37 35 35 35 34 31 24 15 12 13 15 14 10 7 4 3 1 359 355 350 351 351 350 349 349 347 346 343 340 338 336 336 336 336 338 341 345 350 353 355 353 350 346 340 333 326 320 314 311
32 29 26 25 25 25 24 23 23 26 26 26 25 24 21 19 17 15 11 8 4 1 359 356 355 355 355 356 357 357 359 1 2 0 3 15 35 50 54 56 56 58 59 58 56 53 51 49 45 43 42 41 40 38 35 34 32 31 30 26 20 13 11 10 10 9 6 2 358 355 353 349 347 344 345 343 341 340 338 336 333 332 330 327 323 317 312 310 317 331 338 343 344 343 341 338 335 333 330 327 324 321 318
29 27 26 27 28 29 27 26 26 29 29 27 25 22 18 15 12 9 6 3 0 359 358 356 355 354 355 355 355 354 356 357 356 353 0 20 45 58 60 62 63 64 63 61 58 54 51 49 46 42 41 39 37 34 30 28 26 24 22 18 14 12 10 7 3 0 357 353 349 346 345 343 341 340 338 335 333 331 329 328 327 326 324 320 315 308 297 291 300 328 339 341 341 339 335 333 332 333 333 332 331 329 328
27 26 28 30 32 33 31 29 28 29 27 25 23 18 15 12 8 5 2 359 357 356 356 354 353 353 352 352 351 351 353 351 348 345 360 28 53 62 64 66 66 66 64 61 58 53 49 47 44 41 37 35 31 27 23 20 18 15 14 13 11 9 6 2 358 352 346 341 338 337 336 336 335 335 331 329 327 326 324 322 322 321 319 314 309 302 295 289 297 355 349 346 343 340 337 336 336 338 339 338 336 335 335
22 24 29 32 34 35 33 30 28 26 24 22 19 15 12 8 5 1 357 355 354 353 352 351 350 350 349 348 348 350 349 345 341 342 7 40 58 64 64 63 63 63 63 61 57 51 48 45 42 40 36 31 25 19 16 13 11 8 8 8 7 3 358 354 350 344 337 332 330 329 328 327 327 325 323 321 320 320 319 318 318 318 318 316 313 309 310 321 20 42 17 0 349 344 342 342 343 343 342 341 340 338 337
21 22 27 31 33 33 32 30 26 23 21 18 16 12 8 5 0 355 352 351 350 350 348 347 346 347 345 345 345 347 342 337 337 349 29 53 61 62 60 58 57 57 59 58 54 50 47 43 40 39 34 27 18 11 10 8 5 2 2 2 0 354 346 342 338 335 328 324 320 321 320 318 316 313 312 310 310 310 311 311 313 316 321 324 329 337 358 30 52 47 30 15 0 351 349 348 347 345 342 341 340 338 337
20 22 25 27 28 28 29 27 24 20 18 15 13 9 5 360 354 349 347 346 346 346 343 342 342 342 341 341 341 341 335 334 341 16 51 61 61 59 57 56 54 52 54 53 50 48 45 42 38 35 30 22 13 7 5 2 359 357 357 355 349 339 330 325 323 321 314 310 308 310 310 308 303 299 297 296 296 297 300 303 307 316 330 343 5 25 47 57 61 50 36 27 19 6 358 352 346 339 336 336 336 335 334
20 21 21 21 21 22 23 22 21 18 15 12 9 5 360 354 348 343 342 342 342 341 339 338 338 338 336 336 336 334 331 338 1 51 59 60 59 57 55 54 52 48 48 45 43 44 41 36 31 28 24 16 7 0 357 354 353 353 352 346 336 323 316 313 310 303 296 295 299 303 298 293 291 290 289 288 288 290 293 296 303 321 346 20 46 59 69 73 72 62 46 36 29 20 2 345 334 328 328 329 330 329 328
19 18 16 15 15 17 19 20 19 16 12 8 4 359 353 346 341 337 338 338 337 335 335 334 334 333 333 334 332 328 333 356 44 67 61 58 57 57 55 53 50 47 45 40 38 38 35 27 21 19 14 5 354 346 344 344 346 348 343 336 327 319 313 306 298 287 287 293 299 295 290 288 287 286 284 283 285 288 291 296 303 328 17 64 78 84 94 101 99 83 55 36 25 16 353 318 309 314 321 323 325 326 326
15 13 10 10 12 16 19 19 17 13 8 3 357 350 343 337 334 333 334 332 330 329 329 328 328 330 333 331 328 328 346 37 72 72 64 60 58 59 57 54 50 46 41 38 35 34 28 20 9 1 353 343 337 334 336 338 339 337 333 326 319 312 303 292 283 278 288 293 292 288 288 289 289 286 284 283 284 284 286 291 300 334 96 118 125 128 134 134 126 101 57 23 4 351 323 296 287 302 319 327 329 330 330
6 4 5 8 14 21 21 19 14 8 1 355 348 340 333 329 329 329 326 324 321 321 320 321 324 332 331 328 328 340 22 63 77 74 70 66 62 61 58 54 48 43 39 34 30 29 20 6 350 338 332 329 330 332 333 332 330 325 319 311 303 296 289 284 281 284 290 290 288 287 290 290 289 288 288 285 279 271 269 278 294 341 133 153 160 166 167 165 158 140 50 357 339 325 308 292 289 313 333 337 337 336 337
359 359 5 11 18 22 20 15 9 1 353 346 338 329 324 324 324 322 317 313 312 312 313 319 327 334 327 327 338 23 60 71 75 76 75 72 68 63 59 53 46 40 33 26 20 20 7 348 332 326 327 328 330 331 329 325 319 312 301 293 286 283 284 287 290 293 292 292 292 294 295 295 294 292 289 281 267 249 252 280 313 345 194 183 185 185 188 184 177 167 352 331 323 316 306 299 301 335 344 343 340 339 340
355 2 11 17 21 20 14 7 359 351 343 335 328 322 321 321 319 315 310 309 309 310 314 322 329 329 326 337 9 66 74 75 75 77 78 77 73 65 58 50 42 38 29 19 10 5 349 333 325 324 325 326 328 328 323 317 311 303 297 291 288 284 284 286 287 287 288 291 294 298 302 306 306 300 287 274 263 252 270 316 332 335 271 209 201 199 200 198 195 196 293 316 317 317 313 312 322 349 351 347 343 341 341
356 7 17 20 20 15 6 358 348 338 331 325 321 320 320 318 314 309 307 308 309 309 311 320 328 327 337 6 51 78 77 77 77 79 82 81 76 67 54 45 36 30 21 10 358 347 334 326 323 321 322 323 324 322 317 312 308 304 301 298 293 286 282 278 276 274 280 286 293 301 312 321 323 317 305 297 295 301 329 339 335 322 278 219 210 210 211 212 213 223 275 311 324 331 324 329 345 358 351 345 339 335 335